GW4549 Weather Reports


time (UTC)temp
F
wind
direction
speed
knots
gust
knots
rain 1hr
in
rain 24hr
in
rain mn
in
humidity
%
barometer
mb
20260505152006 76 182 4.3 9.6 0.00 0.00 0.00 47 1016.3
20260505151509 76 205 4.3 9.6 0.00 0.00 0.00 47 1016.4
20260505151007 75 200 3.5 9.6 0.00 0.00 0.00 48 1016.4
20260505150506 75 225 4.3 9.6 0.00 0.00 0.00 47 1016.3
20260505140508 71 213 4.3 12.2 0.00 0.00 0.00 53 1016.7
20260505125007 66 233 5.2 10.4 0.00 0.00 0.00 61 1016.9
20260505124528 65 197 3.5 9.6 0.00 0.00 0.00 62 1016.9
20260505124008 65 231 1.7 7.0 0.00 0.00 0.00 63 1016.9
20260505123507 65 211 1.7 10.4 0.00 0.00 0.00 64 1016.8
20260505123006 64 241 5.2 10.4 0.00 0.00 0.00 64 1016.8
20260505122504 64 211 0.9 13.0 0.00 0.00 0.00 64 1016.8
20260505122010 63 217 5.2 13.0 0.00 0.00 0.00 64 1016.7
20260505121510 63 175 3.5 9.6 0.00 0.00 0.00 66 1016.7
20260505121007 62 312 2.6 9.6 0.00 0.00 0.00 67 1016.7
20260505120507 62 188 2.6 8.7 0.00 0.00 0.00 67 1016.6
20260505120021 62 200 3.5 7.8 0.00 0.00 0.00 68 1016.6
20260505115506 61 234 2.6 8.7 0.00 0.00 0.00 69 1016.6
20260505115004 61 216 2.6 7.0 0.00 0.00 0.00 68 1016.5
20260505114508 61 220 3.5 7.8 0.00 0.00 0.00 69 1016.6
20260505114004 61 200 2.6 8.7 0.00 0.00 0.00 70 1016.6
20260505113503 60 226 2.6 8.7 0.00 0.00 0.00 70 1016.5
20260505113018 60 218 4.3 7.8 0.00 0.00 0.00 71 1016.5
20260505112507 60 267 1.7 6.1 0.00 0.00 0.00 71 1016.5
20260505112010 59 188 2.6 8.7 0.00 0.00 0.00 71 1016.6
20260505111520 59 186 3.5 8.7 0.00 0.00 0.00 71 1016.5
20260505111006 59 218 3.5 7.8 0.00 0.00 0.00 71 1016.5
20260505110505 59 238 3.5 7.8 0.00 0.00 0.00 71 1016.5
20260505102006 59 171 3.5 9.6 0.00 0.00 0.00 70 1016.0
20260505101517 59 239 5.2 9.6 0.00 0.00 0.00 70 1015.8
20260505101009 59 146 2.6 7.8 0.00 0.00 0.00 70 1015.8
20260505100508 59 191 2.6 7.8 0.00 0.00 0.00 70 1015.7
20260505100024 59 194 2.6 7.8 0.00 0.00 0.00 70 1015.5
20260505095507 59 190 2.6 7.8 0.00 0.00 0.00 70 1015.6
20260505095005 59 236 2.6 7.8 0.00 0.00 0.00 69 1015.5
20260505094511 60 202 2.6 8.7 0.00 0.00 0.00 69 1015.4
20260505094007 60 227 2.6 7.8 0.00 0.00 0.00 69 1015.4
20260505093507 60 196 2.6 7.8 0.00 0.00 0.00 69 1015.3
20260505093019 60 240 3.5 7.8 0.00 0.00 0.00 68 1015.4
20260505092508 60 224 2.6 7.8 0.00 0.00 0.00 68 1015.3
20260505092010 60 254 3.5 7.8 0.00 0.00 0.00 68 1015.3
20260505091522 60 256 1.7 7.0 0.00 0.00 0.00 68 1015.3
20260505091006 60 218 1.7 7.0 0.00 0.00 0.00 68 1015.3
20260505090503 60 214 2.6 7.8 0.00 0.00 0.00 67 1015.3
20260505090012 60 167 3.5 7.8 0.00 0.00 0.00 67 1015.2
20260505085509 60 188 2.6 6.1 0.00 0.00 0.00 67 1015.2
20260505085007 60 191 1.7 7.0 0.00 0.00 0.00 67 1015.3
20260505084541 61 186 1.7 7.0 0.00 0.00 0.00 67 1015.3
20260505084011 61 225 3.5 7.0 0.00 0.00 0.00 66 1015.2
20260505083509 61 246 2.6 7.8 0.00 0.00 0.00 66 1015.2
20260505083026 61 169 2.6 7.8 0.00 0.00 0.00 66 1015.2
20260505082507 61 221 0.9 6.1 0.00 0.00 0.00 66 1015.1
20260505082008 61 221 2.6 7.0 0.00 0.00 0.00 66 1015.1
20260505081520 61 288 1.7 7.0 0.00 0.00 0.00 65 1015.2
20260505081007 61 207 0.9 13.0 0.00 0.00 0.00 65 1015.1
20260505080510 61 207 5.2 10.4 0.00 0.00 0.00 65 1015.1
20260505080026 61 179 3.5 7.8 0.00 0.00 0.00 65 1015.1
20260505075507 61 242 1.7 6.1 0.00 0.00 0.00 65 1015.1
20260505075008 61 209 2.6 6.1 0.00 0.00 0.00 65 1015.1
20260505074512 62 236 2.6 7.8 0.00 0.00 0.00 65 1015.1
20260505074006 62 221 3.5 7.8 0.00 0.00 0.00 64 1015.1
20260505073507 62 179 3.5 8.7 0.00 0.00 0.00 64 1015.1
20260505073022 62 250 2.6 8.7 0.00 0.00 0.00 64 1015.0
20260505072509 62 186 1.7 8.7 0.00 0.00 0.00 64 1015.0
20260505072012 62 240 1.7 7.8 0.00 0.00 0.00 64 1014.9
20260505071525 62 243 3.5 7.8 0.00 0.00 0.00 63 1015.0
20260505071011 62 167 2.6 7.8 0.00 0.00 0.00 63 1014.9
20260505070509 62 234 2.6 7.8 0.00 0.00 0.00 63 1014.9
20260505070016 62 238 0.9 9.6 0.00 0.00 0.00 62 1014.8
20260505065509 62 214 2.6 10.4 0.00 0.00 0.00 62 1014.9
20260505065006 63 202 4.3 10.4 0.00 0.00 0.00 62 1014.9
20260505064526 62 205 4.3 8.7 0.00 0.00 0.00 62 1014.9
20260505064015 62 244 2.6 7.8 0.00 0.00 0.00 62 1014.9
20260505063510 63 211 3.5 7.8 0.00 0.00 0.00 61 1014.9
20260505063033 63 205 2.6 9.6 0.00 0.00 0.00 61 1014.9
20260505062508 63 188 5.2 9.6 0.00 0.00 0.00 61 1014.9
20260505062007 63 224 2.6 10.4 0.00 0.00 0.00 61 1014.9
20260505061522 63 243 5.2 10.4 0.00 0.00 0.00 60 1014.9
20260505061007 63 238 3.5 10.4 0.00 0.00 0.00 61 1015.0
20260505060510 63 227 5.2 10.4 0.00 0.00 0.00 61 1015.0
20260505060034 63 267 3.5 9.6 0.00 0.00 0.00 61 1015.0
20260505055513 63 170 3.5 9.6 0.00 0.00 0.00 61 1015.1
20260505055010 63 280 3.5 12.2 0.00 0.00 0.00 61 1015.0
20260505054515 63 229 2.6 12.2 0.00 0.00 0.00 61 1015.1
20260505054011 63 225 4.3 9.6 0.00 0.00 0.00 61 1015.1
20260505053509 63 264 3.5 12.2 0.00 0.00 0.00 61 1015.2
20260505053022 63 215 3.5 12.2 0.00 0.00 0.00 61 1015.3
20260505052510 63 190 4.3 10.4 0.00 0.00 0.00 61 1015.3
20260505052009 63 184 2.6 9.6 0.00 0.00 0.00 61 1015.1
20260505051528 64 125 3.5 9.6 0.00 0.00 0.00 61 1015.2
20260505051011 64 218 4.3 10.4 0.00 0.00 0.00 61 1015.2
20260505050508 64 229 3.5 10.4 0.00 0.00 0.00 60 1015.3
20260505041523 65 114 0.9 10.4 0.00 0.00 0.00 60 1015.2
20260505041007 65 214 5.2 10.4 0.00 0.00 0.00 60 1015.1
20260505040513 65 169 4.3 10.4 0.00 0.00 0.00 60 1015.2
20260505040029 65 267 3.5 11.3 0.00 0.00 0.00 60 1015.1
20260505035511 65 246 4.3 11.3 0.00 0.00 0.00 60 1015.0
20260505035010 65 194 5.2 10.4 0.00 0.00 0.00 59 1015.1
20260505034531 65 190 5.2 13.0 0.00 0.00 0.00 59 1015.1
20260505034008 65 221 4.3 13.0 0.00 0.00 0.00 60 1015.0
20260505033511 65 220 4.3 11.3 0.00 0.00 0.00 59 1015.0
20260505033026 65 256 6.1 12.2 0.00 0.00 0.00 59 1015.0
20260505032510 65 215 5.2 12.2 0.00 0.00 0.00 59 1015.0
20260505032011 65 236 4.3 13.0 0.00 0.00 0.00 60 1015.0
20260505031529 65 230 6.1 13.0 0.00 0.00 0.00 59 1014.9
20260505031009 65 241 3.5 12.2 0.00 0.00 0.00 59 1015.0
20260505030507 65 107 4.3 15.6 0.00 0.00 0.00 59 1014.9
20260505030022 66 188 5.2 15.6 0.00 0.00 0.00 59 1015.0
20260505025509 66 203 5.2 15.6 0.00 0.00 0.00 60 1015.0
20260505025009 66 213 3.5 13.9 0.00 0.00 0.00 60 1015.0
20260505024526 66 164 3.5 13.9 0.00 0.00 0.00 60 1015.1
20260505024007 66 172 6.1 12.2 0.00 0.00 0.00 61 1015.0
20260505023511 66 178 2.6 10.4 0.00 0.00 0.00 60 1015.1
20260505023026 66 175 5.2 10.4 0.00 0.00 0.00 61 1015.0
20260505022509 66 144 3.5 13.0 0.00 0.00 0.00 60 1015.0
20260505022010 66 176 6.1 12.2 0.00 0.00 0.00 60 1015.0
20260505021523 66 162 3.5 11.3 0.00 0.00 0.00 60 1014.9
20260505021009 67 198 2.6 11.3 0.00 0.00 0.00 60 1014.8
20260505020512 67 214 3.5 10.4 0.00 0.00 0.00 60 1014.9
20260505020028 67 115 4.3 13.0 0.00 0.00 0.00 60 1015.0
20260505015511 67 123 4.3 13.0 0.00 0.00 0.00 60 1014.9
20260505015010 67 220 3.5 10.4 0.00 0.00 0.00 60 1014.9
20260505014528 67 198 3.5 8.7 0.00 0.00 0.00 60 1014.9
20260505014009 67 182 2.6 14.8 0.00 0.00 0.00 59 1014.7
20260505013508 67 178 4.3 14.8 0.00 0.00 0.00 59 1014.6
20260505013027 67 180 1.7 10.4 0.00 0.00 0.00 59 1014.7
20260505012508 67 216 0.9 9.6 0.00 0.00 0.00 59 1014.6
20260505012009 68 118 2.6 10.4 0.00 0.00 0.00 59 1014.6
20260505011546 68 159 2.6 10.4 0.00 0.00 0.00 58 1014.5
20260505011010 68 238 5.2 10.4 0.00 0.00 0.00 58 1014.4
20260505010514 68 202 2.6 8.7 0.00 0.00 0.00 58 1014.3
20260505010026 68 166 4.3 13.0 0.00 0.00 0.00 58 1014.3
20260505005511 68 244 5.2 13.0 0.00 0.00 0.00 57 1014.2
20260505005011 69 146 3.5 9.6 0.00 0.00 0.00 57 1014.1
20260505004526 69 186 4.3 10.4 0.00 0.00 0.00 57 1014.0
20260505004007 69 144 2.6 12.2 0.00 0.00 0.00 56 1013.9
20260505003504 69 290 5.2 12.2 0.00 0.00 0.00 56 1013.9
20260505003020 69 169 3.5 10.4 0.00 0.00 0.00 56 1013.9
20260505002507 69 261 3.5 13.9 0.00 0.00 0.00 55 1013.9
20260505002018 70 158 3.5 14.8 0.00 0.00 0.00 55 1013.7
20260505001526 70 200 5.2 13.9 0.00 0.00 0.00 54 1013.7
20260505001012 70 151 3.5 10.4 0.00 0.00 0.00 54 1013.6
20260505000510 70 167 3.5 13.0 0.00 0.00 0.00 53 1013.6
20260505000015 70 186 5.2 13.0 0.00 0.00 0.00 52 1013.5
20260504235505 71 132 5.2 12.2 0.00 0.00 0.00 52 1013.4
20260504235008 71 123 4.3 8.7 0.00 0.00 0.00 51 1013.4
20260504234528 71 227 3.5 12.2 0.00 0.00 0.00 50 1013.3
20260504234009 72 319 5.2 14.8 0.00 0.00 0.00 49 1013.3
20260504233509 72 202 5.2 14.8 0.00 0.00 0.00 48 1013.1
20260504233028 73 227 2.6 14.8 0.00 0.00 0.00 45 1013.1
20260504232507 74 184 4.3 14.8 0.00 0.00 0.00 40 1012.9
20260504232006 74 208 4.3 11.3 0.00 0.00 0.00 36 1012.9
20260504231516 75 221 2.6 11.3 0.00 0.00 0.00 35 1012.8
20260504231010 75 213 3.5 11.3 0.00 0.00 0.00 35 1012.7
20260504230507 75 223 5.2 9.6 0.00 0.00 0.00 35 1012.7
20260504230024 75 199 3.5 10.4 0.00 0.00 0.00 35 1012.7
20260504225508 75 236 5.2 11.3 0.00 0.00 0.00 35 1012.8
20260504225009 76 220 3.5 11.3 0.00 0.00 0.00 34 1012.7
20260504224513 76 217 3.5 10.4 0.00 0.00 0.00 35 1012.8
20260504224005 76 223 6.1 10.4 0.00 0.00 0.00 34 1012.7
20260504223507 76 193 2.6 11.3 0.00 0.00 0.00 34 1012.6
20260504223025 76 231 4.3 16.5 0.00 0.00 0.00 34 1012.8
20260504222510 76 134 6.1 16.5 0.00 0.00 0.00 33 1012.7
20260504222009 77 215 4.3 10.4 0.00 0.00 0.00 34 1012.8
20260504221526 77 290 3.5 11.3 0.00 0.00 0.00 34 1012.8
20260504221012 77 180 5.2 11.3 0.00 0.00 0.00 32 1012.8
20260504220509 77 198 5.2 15.6 0.00 0.00 0.00 33 1012.6
20260504220014 77 165 2.6 16.5 0.00 0.00 0.00 33 1012.7
20260504215507 77 261 6.1 16.5 0.00 0.00 0.00 32 1012.7
20260504215009 78 219 3.5 13.0 0.00 0.00 0.00 32 1012.7
20260504214526 78 181 4.3 13.9 0.00 0.00 0.00 32 1012.7
20260504214012 78 194 6.1 12.2 0.00 0.00 0.00 32 1012.8
20260504213511 78 227 5.2 13.0 0.00 0.00 0.00 32 1012.9
20260504213033 78 233 4.3 13.0 0.00 0.00 0.00 31 1012.9
20260504212510 79 214 4.3 12.2 0.00 0.00 0.00 32 1013.0
20260504212007 79 169 6.1 14.8 0.00 0.00 0.00 31 1012.8
20260504211527 79 207 5.2 14.8 0.00 0.00 0.00 31 1012.9
20260504211007 80 184 4.3 10.4 0.00 0.00 0.00 31 1012.9
20260504210504 79 124 2.6 9.6 0.00 0.00 0.00 31 1012.9
20260504210008 79 267 4.3 12.2 0.00 0.00 0.00 32 1013.0
20260504205504 79 211 5.2 12.2 0.00 0.00 0.00 31 1013.0
20260504205006 79 180 5.2 12.2 0.00 0.00 0.00 32 1013.0
20260504204514 79 227 5.2 11.3 0.00 0.00 0.00 32 1013.0
20260504204006 80 116 2.6 13.0 0.00 0.00 0.00 32 1013.1
20260504203507 79 231 6.1 12.2 0.00 0.00 0.00 32 1013.0
20260504203003 79 193 3.5 12.2 0.00 0.00 0.00 32 1013.0
20260504202503 78 227 5.2 12.2 0.00 0.00 0.00 31 1013.0
20260504202003 78 250 4.3 11.3 0.00 0.00 0.00 32 1013.1
20260504201510 80 212 5.2 11.3 0.00 0.00 0.00 30 1013.1
20260504201003 80 215 5.2 17.4 0.00 0.00 0.00 31 1013.1
20260504200506 79 199 4.3 17.4 0.00 0.00 0.00 30 1013.2
20260504200020 79 225 6.1 14.8 0.00 0.00 0.00 29 1013.2
20260504195507 80 177 2.6 14.8 0.00 0.00 0.00 31 1013.3
20260504195008 80 223 4.3 10.4 0.00 0.00 0.00 32 1013.3
20260504194504 79 149 5.2 10.4 0.00 0.00 0.00 31 1013.4
20260504194004 80 248 5.2 10.4 0.00 0.00 0.00 31 1013.5
20260504193506 80 224 4.3 14.8 0.00 0.00 0.00 30 1013.6
20260504193012 80 308 6.1 13.9 0.00 0.00 0.00 30 1013.6
20260504192508 80 219 5.2 12.2 0.00 0.00 0.00 29 1013.7
20260504192009 80 243 7.8 14.8 0.00 0.00 0.00 29 1013.7
20260504191521 80 126 5.2 13.9 0.00 0.00 0.00 30 1013.7
20260504191009 80 215 1.7 13.9 0.00 0.00 0.00 31 1013.8
20260504190503 79 135 6.1 12.2 0.00 0.00 0.00 32 1013.9
20260504190006 79 213 3.5 10.4 0.00 0.00 0.00 33 1013.8
20260504185505 80 269 5.2 10.4 0.00 0.00 0.00 30 1013.9
20260504185004 80 236 2.6 7.8 0.00 0.00 0.00 33 1013.9
20260504184523 80 278 4.3 11.3 0.00 0.00 0.00 33 1014.1
20260504184011 79 239 2.6 11.3 0.00 0.00 0.00 32 1014.0
20260504183508 80 201 4.3 10.4 0.00 0.00 0.00 32 1014.3
20260504183026 79 292 2.6 8.7 0.00 0.00 0.00 34 1014.4
20260504182503 79 268 4.3 11.3 0.00 0.00 0.00 33 1014.6
20260504182004 78 277 6.1 11.3 0.00 0.00 0.00 35 1014.5
20260504181509 77 287 1.7 9.6 0.00 0.00 0.00 33 1014.3
20260504181008 79 258 3.5 13.9 0.00 0.00 0.00 32 1014.6
20260504180507 78 222 7.0 13.9 0.00 0.00 0.00 34 1014.7
20260504180023 78 195 4.3 12.2 0.00 0.00 0.00 33 1014.7
20260504175513 79 206 2.6 11.3 0.00 0.00 0.00 35 1014.7
20260504175012 77 284 3.5 10.4 0.00 0.00 0.00 34 1014.7
20260504174526 77 324 2.6 10.4 0.00 0.00 0.00 34 1014.7
20260504174010 77 159 2.6 10.4 0.00 0.00 0.00 35 1014.8
20260504173508 77 287 4.3 11.3 0.00 0.00 0.00 34 1014.8
20260504173020 77 261 4.3 10.4 0.00 0.00 0.00 33 1014.9
20260504172505 77 227 5.2 14.8 0.00 0.00 0.00 33 1014.9
20260504172010 76 300 7.0 14.8 0.00 0.00 0.00 34 1015.0
20260504171539 76 294 7.0 14.8 0.00 0.00 0.00 34 1015.0
20260504171010 77 266 4.3 10.4 0.00 0.00 0.00 35 1015.0
20260504170515 77 275 2.6 11.3 0.00 0.00 0.00 35 1015.0